Location: ?ern� Novina
(50.6762°N, 14.8696°E)
Time: 14:08:14
(UTC+00:00)

USA 306 - Pass Details

Date: 03 March 2021
Orbit: 564 x 577 km, 54.0° (Epoch: 10 April)

Event Time Altitude Azimuth Distance (km) Brightness Sun altitude
Rises 18:20:33 0° 277° (W) 2,784 8.3 -15.8°
Reaches altitude 10° 18:22:51 10° 282° (WNW) 1,883 6.9 -16.2°
Maximum altitude 18:27:04 53° 0° (N) 704 3.4 -16.8°
Enters shadow 18:28:59 29° 64° (ENE) 1,064 3.8 -17.1°
